Simultaneous Nadir Overpasses (SNOs) Predictions

Prediction of SNOs between GOES-15 and TERRA Satellite Orbit:

Table of predicted SNOs for the next 14.0 days since TLE Epoch: 5/19/2018
Index Date Time (GOES-15) GOES-15 Lat,Lon TERRA Lat,Lon Distance(km) Time Diff (sec)
1 05/20/2018 07:17:15 0.15,-135.29 0.86,-132.10 363.62 80
2 05/20/2018 19:41:10 -0.15,-135.30 0.29,-137.25 221.47 80
3 05/22/2018 19:26:20 -0.15,-135.26 -0.36,-134.30 108.91 80
4 05/23/2018 07:50:24 0.14,-135.22 -0.77,-139.49 485.45 80
5 05/24/2018 19:14:09 -0.16,-135.21 -0.96,-131.34 439.19 80
6 05/25/2018 07:38:13 0.15,-135.17 -0.17,-136.53 155.21 80
7 05/27/2018 07:23:23 0.15,-135.12 0.50,-133.58 174.79 80
8 05/27/2018 19:47:18 -0.14,-135.13 0.64,-138.73 410.23 80
9 05/29/2018 19:35:07 -0.14,-135.07 0.02,-135.78 80.99 80
10 05/31/2018 19:20:16 -0.15,-135.00 -0.60,-132.82 247.66 80
11 06/01/2018 07:44:19 0.14,-134.96 -0.52,-138.01 347.26 80




NCC Satellite Simultaneous Nadir Overpasses (SNOs) Prediction Service
